Location: Syracuse
(43.0480°N, 76.1480°W)
Time: 01:37:52
(UTC-05:00)

Daily predictions for brighter satellites

Satellite Brightness Start Highest point End
(mag) Time Altitude Azimuth Time Altitude Azimuth Time Altitude Azimuth
Cosmos 2237 Rocket 4.0 03:57:43 22° NNE 03:57:43 22° NNE 03:59:42 10° NNE
Cosmos 2333 Rocket 4.3 04:06:33 16° N 04:06:33 16° N 04:07:48 10° NNE
DELTA 2 R/B (1) 4.4 04:07:47 46° SE 04:07:47 46° SE 04:11:50 10° ESE
Cosmos 2219 Rocket 4.4 04:20:20 13° N 04:20:20 13° N 04:21:01 10° N
Atlas Centaur 2 3.9 04:16:09 30° SSW 04:16:48 31° S 04:23:53 10° SE
SL-08 R/B 4.5 04:19:45 31° N 04:23:02 86° E 04:29:26 10° S
Lacrosse 5 rocket 2.5 04:23:56 46° ESE 04:23:56 46° ESE 04:27:58 10° ENE
SL-16 R/B 2.1 04:29:35 84° S 04:29:46 87° ESE 04:35:29 10° NNE
Cosmos 2123 Rocket 3.9 04:26:49 10° S 04:33:02 87° E 04:39:21 10° N
Cosmos 1725 Rocket 3.9 04:27:16 10° N 04:33:31 88° E 04:39:41 10° S
DEBRIS 4.4 04:38:24 27° ESE 04:38:24 27° ESE 04:39:28 10° ESE
CZ-4B R/B 3.1 04:44:51 10° N 04:50:30 70° WNW 04:56:07 10° SSW
Meteor 1-26 Rocket 4.0 04:48:03 30° NNW 04:50:55 79° W 04:56:33 10° S
USA 229 DEB 3.7 04:49:11 40° NW 04:52:04 75° WSW 04:59:22 10° SSE
Cosmos 1503 Rocket 3.8 04:51:37 67° WNW 04:52:05 72° WSW 04:57:13 10° S
USA 229 3.7 04:49:15 40° NW 04:52:09 75° WSW 04:59:28 10° SSE
CZ-2C R/B 3.5 04:49:09 10° SSE 04:53:39 86° WSW 04:54:19 64° NNW
Cosmos 2369 Rocket 3.7 04:49:04 10° N 04:54:06 33° NE 04:59:05 10° ESE
Cosmos 2297 3.8 04:54:23 51° WSW 04:54:23 51° WSW 04:59:45 10° S
Cosmos 2016 Rocket 4.5 04:56:33 38° SW 04:56:33 38° SW 05:00:48 10° SSW
COSMO-SKYMED 1 3.4 04:51:56 10° SSE 04:56:07 49° ENE 05:00:20 10° N
Cosmos 2084 Rocket 3.3 04:57:55 68° SSE 04:57:55 68° SSE 05:01:21 10° SE
Cosmos 1408 3.8 04:56:27 10° SSE 05:00:01 44° E 05:03:35 10° NNE
IRS-1C Rocket 4.0 04:56:04 10° N 05:01:16 64° WNW 05:06:27 10° SSW
USA 116 4.4 04:56:41 10° S 05:01:57 81° WSW 05:07:09 11° NNW
SJ-6F 4.2 04:57:53 10° N 05:02:00 74° WNW 05:02:05 74° W
Meteor 2-12 Rocket 4.3 04:56:28 11° NNW 05:02:10 61° W 05:08:05 10° S
Cosmos 968 Rocket 4.0 04:59:38 14° NNW 05:04:05 61° ENE 05:09:18 10° SSE
IDEFIX/ARIANE 42P 3.7 05:02:01 10° NNE 05:06:58 44° E 05:11:53 10° S
Cosmos 1862 Rocket 4.4 05:12:48 33° SW 05:12:48 33° SW 05:15:38 10° SSW
PSLV R/B 4.0 05:11:52 39° S 05:12:00 39° SSE 05:14:59 10° E
MTI 3.9 05:13:51 10° S 05:16:34 58° SSW 05:16:34 58° SSW
Meteor 1-28 Rocket 3.9 05:15:06 10° S 05:17:46 36° SW 05:17:46 36° SW
SKYMED 3 4.4 05:21:43 10° S 05:26:03 78° WSW 05:30:24 10° NNW
EO 1 Del DPAF 3.1 05:23:00 10° S 05:26:50 71° WSW 05:29:32 19° NNW
Cosmos 1464 Rocket 4.5 05:21:29 10° N 05:27:44 64° E 05:33:59 10° SSE
Landsat 4 4.2 05:25:44 10° SSW 05:28:55 36° WSW 05:28:55 36° WSW
Meteor 2-6 Rocket 4.4 05:24:02 10° N 05:29:55 80° E 05:35:52 10° SSE
Cosmos 1943 Rocket 3.4 05:27:18 10° NNW 05:32:41 41° ENE 05:38:00 10° SE
Okean 1-7 3.0 05:28:18 10° N 05:32:44 84° E 05:37:05 10° S
USA 32 4.3 05:32:54 10° SSW 05:37:51 44° W 05:42:53 10° N
Hubble Space Telescope 3.4 05:37:56 10° SSW 05:38:36 10° S 05:39:17 10° S
Cosmos 1943 3.9 05:33:22 10° S 05:38:56 59° ESE 05:44:32 10° NNE
Cosmos 2237 Rocket 3.9 05:39:35 15° NW 05:39:35 15° NW 05:42:10 10° N
Cosmos 2233 Rocket 4.3 05:38:11 10° NNW 05:43:55 42° W 05:49:36 10° SSW
SKYMED 2 3.7 05:39:57 10° S 05:44:09 49° W 05:48:22 10° NNW
CZ-4 R/B 4.4 05:41:55 10° NE 05:44:44 19° E 05:47:33 10° SE
ATLAS 5 CENTAUR R/B 2.4 05:43:54 10° SSW 05:48:22 58° ESE 05:53:16 10° NE
Gbstr 26 Del rocket 4.3 05:46:28 18° NW 05:48:27 24° N 05:51:44 10° NE
Abrixas rocket 3.3 05:49:49 22° NW 05:51:15 32° N 05:54:11 10° ENE
Cosmos 1825 2.4 05:47:50 10° SSW 05:51:26 43° WNW 05:55:05 10° N
DMSP B5D1-3 4.5 05:47:07 10° S 05:52:13 70° WSW 05:57:22 10° NNW
DELTA 2 R/B (1) 4.3 05:48:34 17° W 05:52:25 43° SSW 05:57:39 10° SE
BREEZE-M DEB (TANK) 3.2 05:50:45 21° WNW 05:53:01 60° N 05:57:11 10° E
Meteor 1-27 Rocket 3.9 05:49:25 10° N 05:55:20 82° E 06:01:04 10° SSE
Cosmos 2221 Rocket 3.7 05:54:18 10° NNW 05:58:41 56° W 06:03:04 10° S
Intercosmos 25 3.8 05:56:50 12° NNW 05:59:40 36° W 06:03:37 10° SSW
USA 267 4.3 05:54:09 10° E 05:59:59 36° NNE 06:05:49 10° NW
Okean-O 3.1 05:56:24 10° N 06:00:29 37° WNW 06:04:33 10° SW
Meteor 1-10 Rocket 4.5 05:56:59 10° NNW 06:02:45 53° W 06:08:28 10° S
Lacrosse 5 rocket 2.3 05:59:41 16° W 06:02:55 35° NNW 06:07:11 10° NE
SJ-12 3.9 06:00:19 10° NNE 06:04:28 88° ESE 06:08:34 10° SSW
Genesis I 4.4 06:03:24 10° SSW 06:07:07 45° ESE 06:10:54 10° NE
Cosmos 1484 Rocket 3.8 06:04:13 10° NNE 06:08:10 52° E 06:12:05 10° S
Cosmos 1513 Rocket 4.4 06:05:35 10° NNW 06:11:37 68° W 06:17:36 10° S
Cosmos 1441 Rocket 3.3 06:08:44 10° NNW 06:12:23 49° W 06:16:01 10° S
Cosmos 1606 3.9 06:10:12 10° NW 06:13:14 23° W 06:16:16 10° SW
SL-16 R/B 3.6 06:11:34 12° W 06:14:40 17° NW 06:18:23 10° N
Cosmos 1869 Rocket 4.2 06:12:49 10° SW 06:16:44 32° WNW 06:20:43 10° N
COSMOS 2441 4.3 06:12:10 10° N 06:17:04 73° WNW 06:21:56 10° SSW
Cosmos 1777 Rocket 4.0 06:13:18 10° NNW 06:18:32 70° WSW 06:23:40 10° S
Cosmos 1603 4.2 06:13:47 10° SW 06:19:00 38° WNW 06:24:19 10° N
SMAP 3.5 06:18:32 10° NNE 06:23:11 67° ESE 06:27:49 10° S
Cosmos 1782 4.2 06:22:27 10° NW 06:25:13 18° W 06:27:58 10° SW
CZ-2C R/B 2.9 06:25:06 10° N 06:29:59 42° WNW 06:34:45 10° SW
COSMO-SKYMED 1 4.2 06:29:57 10° SW 06:32:33 15° W 06:35:09 10° NW
ATLAS 2AS CENTAUR R/B 3.8 06:25:19 10° NNW 06:33:03 48° NE 06:40:15 10° ESE
AQUARIUS 4.2 06:31:12 10° NNE 06:35:43 90° NE 06:40:13 10° SSW
